Hourly Data Report for December 08, 2000

SHERBROOKE A
QUEBEC

45°26'00.000" N
71°41'00.000" W
241.40 m
7028124
71610
YSC

Download Data

Hourly Data (December 2000)
Hourly Data Report for December 8, 2000
TIME
LST
Temp Definition
°C
Dew Point Definition
°C
Rel Hum Definition
%
Precip. Amount Definition
mm

Wind Dir Definition
10's deg

Wind Spd Definition
km/h
Visibility Definition
km
Stn Press Definition
kPa
Hmdx Definition


Wind Chill Definition


Weather Definition


00:00 -20.0 -23.9 71   27 7 15.0 98.49   -26  
01:00 -20.9 -24.4 73     0 15.0 98.59      
02:00 -21.3 -25.1 71   26 4 15.0 98.65   -25  
03:00 -21.5 -25.6 69   27 9 15.0 98.75   -29  
04:00 -22.2 -26.1 71   28 6 15.0 98.75   -28  
05:00 -23.5 -27.3 71     0 15.0 98.79      
06:00 -23.7 -27.3 72     0 15.0 98.82      
07:00 -24.2 -27.9 71   12 4 15.0 98.85   -28  
08:00 -24.1 -27.9 71   9 4 24.1 98.88   -28 Mainly Clear
09:00 -21.3 -24.9 73   2 4 24.1 98.98   -25 Mostly Cloudy
10:00 -19.7 -24.1 68     0 24.1 99.02     Mostly Cloudy
11:00 -18.0 -22.2 70     0 24.1 98.92     Mostly Cloudy
12:00 -17.1 -23.7 56     0 24.1 98.85     Mainly Clear
13:00 -16.1 -25.1 46   26 4 24.1 98.82   -19 Clear
14:00 -15.6 -24.3 47   32 6 24.1 98.82   -20 Clear
15:00 -14.7 -24.7 42     0 24.1 98.79     Clear
16:00 -16.7 -24.7 50   33 6 24.1 98.88   -21 Mainly Clear
17:00 -19.2 -22.8 73     0 24.1 98.92     Mainly Clear
18:00 -20.0 -23.9 71   7 4 15.0 98.88   -23  
19:00 -20.6 -23.8 75   8 4 15.0 98.95   -24  
20:00 -21.2 -24.3 76     0 15.0 98.98      
21:00 -22.1 -25.6 73   9 4 15.0 99.02   -26  
22:00 -22.1 -25.6 73   11 4 15.0 99.02   -26  
23:00 -22.8 -26.3 73     0 15.0 99.05      

Notes on Data Quality.

Legend

  • E = Estimated
  • M = Missing
  • NA = Not Available*
  • [empty] = Indicates an unobserved value
Date modified: